Radioactive Concentration measured by Seawater Radiation Monitor near Fukushima Daiichi Nuclear Power Station
Date,Time,Cs137(Bq/L),Cs134(Bq/L),Total β(Bq/L)
2019/12/26,00:00,0.85,ND,9.5
2019/12/26,00:10,0.83,ND,9.0
2019/12/26,00:20,0.82,ND,ND
2019/12/26,00:30,0.84,ND,ND
2019/12/26,00:40,0.82,ND,ND
2019/12/26,00:50,0.85,ND,ND
2019/12/26,01:00,0.87,ND,ND
2019/12/26,01:10,0.89,ND,ND
2019/12/26,01:20,0.92,ND,ND
2019/12/26,01:30,0.92,ND,9.2
2019/12/26,01:40,0.90,ND,10
2019/12/26,01:50,0.88,ND,12
2019/12/26,02:00,0.87,ND,13
2019/12/26,02:10,0.88,ND,15
2019/12/26,02:20,0.84,ND,13
2019/12/26,02:30,0.85,ND,12
2019/12/26,02:40,0.86,ND,9.0
2019/12/26,02:50,0.85,ND,ND
2019/12/26,03:00,0.84,ND,ND
2019/12/26,03:10,0.83,ND,ND
2019/12/26,03:20,0.85,ND,ND
2019/12/26,03:30,0.83,ND,ND
2019/12/26,03:40,0.79,ND,9.5
2019/12/26,03:50,0.84,ND,12
2019/12/26,04:00,0.84,ND,ND
2019/12/26,04:10,0.85,ND,9.3
2019/12/26,04:20,0.84,ND,12
2019/12/26,04:30,0.84,ND,13
2019/12/26,04:40,0.85,ND,12
2019/12/26,04:50,0.86,ND,11
2019/12/26,05:00,0.85,ND,15
2019/12/26,05:10,0.83,ND,14
2019/12/26,05:20,0.84,ND,12
2019/12/26,05:30,0.84,ND,9.7
2019/12/26,05:40,0.79,ND,8.8
2019/12/26,05:50,0.79,ND,9.9
2019/12/26,06:00,0.81,ND,ND
2019/12/26,06:10,0.85,ND,ND
2019/12/26,06:20,0.81,ND,ND
2019/12/26,06:30,0.84,ND,ND
2019/12/26,06:40,0.85,ND,ND
2019/12/26,06:50,0.85,ND,ND
2019/12/26,07:00,0.84,ND,ND
2019/12/26,07:10,0.81,ND,10
2019/12/26,07:20,0.87,ND,10
2019/12/26,07:30,0.89,ND,12
2019/12/26,07:40,0.88,ND,10
2019/12/26,07:50,0.89,ND,13
2019/12/26,08:00,0.89,ND,12
2019/12/26,08:10,0.88,ND,9.7
2019/12/26,08:20,0.87,ND,13
2019/12/26,08:30,0.86,ND,13
2019/12/26,08:40,0.87,ND,16
2019/12/26,08:50,0.87,ND,17
2019/12/26,09:00,0.83,ND,18
2019/12/26,09:10,0.86,ND,19
2019/12/26,09:20,0.85,ND,14
2019/12/26,09:30,0.89,ND,13
2019/12/26,09:40,0.87,ND,11
2019/12/26,09:50,0.88,ND,ND
2019/12/26,10:00,0.87,ND,ND
2019/12/26,10:10,0.86,ND,ND
2019/12/26,10:20,0.91,ND,ND
2019/12/26,10:30,0.90,ND,9.7
2019/12/26,10:40,0.91,ND,10
2019/12/26,10:50,0.90,ND,13
2019/12/26,11:00,0.89,ND,14
2019/12/26,11:10,0.87,ND,17
2019/12/26,11:20,0.85,ND,19
2019/12/26,11:30,0.86,ND,17
2019/12/26,11:40,0.80,ND,18
2019/12/26,11:50,0.80,ND,14
2019/12/26,12:00,0.83,ND,14
2019/12/26,12:10,0.79,ND,13
2019/12/26,12:20,0.83,ND,11
2019/12/26,12:30,0.82,ND,13
2019/12/26,12:40,0.81,ND,12
2019/12/26,12:50,0.81,ND,13
2019/12/26,13:00,0.81,ND,15
2019/12/26,13:10,0.82,ND,13
2019/12/26,13:20,0.82,ND,12
2019/12/26,13:30,0.83,ND,11
2019/12/26,13:40,0.83,ND,10
2019/12/26,13:50,0.84,ND,13
2019/12/26,14:00,0.84,ND,11
2019/12/26,14:10,0.82,ND,13
2019/12/26,14:20,0.82,ND,15
2019/12/26,14:30,0.82,ND,12
2019/12/26,14:40,0.82,ND,9.5
2019/12/26,14:50,0.82,ND,9.2
2019/12/26,15:00,0.83,ND,10
2019/12/26,15:10,0.83,ND,12
2019/12/26,15:20,0.82,ND,9.0
2019/12/26,15:30,0.84,ND,12
2019/12/26,15:40,0.84,ND,14
2019/12/26,15:50,0.87,ND,12
2019/12/26,16:00,0.87,ND,12
2019/12/26,16:10,0.87,ND,8.8
2019/12/26,16:20,0.89,ND,9.6
2019/12/26,16:30,0.89,ND,12
2019/12/26,16:40,0.88,ND,10
2019/12/26,16:50,0.87,ND,11
2019/12/26,17:00,0.88,ND,11
2019/12/26,17:10,0.89,ND,10
2019/12/26,17:20,0.90,ND,12
2019/12/26,17:30,0.90,ND,12
2019/12/26,17:40,0.90,ND,13
2019/12/26,17:50,0.92,ND,12
2019/12/26,18:00,0.92,ND,13
2019/12/26,18:10,0.92,ND,12
2019/12/26,18:20,0.91,ND,12
2019/12/26,18:30,0.90,ND,11
2019/12/26,18:40,0.92,ND,10
2019/12/26,18:50,0.92,ND,11
2019/12/26,19:00,0.93,ND,9.3
2019/12/26,19:10,0.93,ND,11
2019/12/26,19:20,0.94,ND,11
2019/12/26,19:30,0.94,ND,10
2019/12/26,19:40,0.95,ND,12
2019/12/26,19:50,0.96,ND,11
2019/12/26,20:00,0.96,ND,13
2019/12/26,20:10,0.97,ND,13
2019/12/26,20:20,0.97,ND,13
2019/12/26,20:30,0.97,ND,12
2019/12/26,20:40,0.95,ND,11
2019/12/26,20:50,0.93,ND,12
2019/12/26,21:00,0.93,ND,10
2019/12/26,21:10,0.94,ND,8.9
2019/12/26,21:20,0.94,ND,ND
2019/12/26,21:30,0.93,ND,ND
2019/12/26,21:40,0.93,ND,ND
2019/12/26,21:50,0.92,ND,8.9
2019/12/26,22:00,0.90,ND,11
2019/12/26,22:10,0.87,ND,14
2019/12/26,22:20,0.87,ND,16
2019/12/26,22:30,0.88,ND,17
2019/12/26,22:40,0.87,ND,14
2019/12/26,22:50,0.87,ND,12
2019/12/26,23:00,0.87,ND,9.6
2019/12/26,23:10,0.87,ND,ND
2019/12/26,23:20,0.86,ND,ND
2019/12/26,23:30,0.84,ND,ND
2019/12/26,23:40,0.84,ND,11
2019/12/26,23:50,0.84,ND,12
